Dewpoint
72 72 72 72 72 72 71 71 71 71 70 70 70 70 69 67 66 67 68 66 68 68 68 69 69 69 69 68 69 69 69 68 68
72 72 72 72 72 71 71 71 71 70 70 69 69 68 67 66 65 66 67 67 68 68 67 68 69 69 69 69 69 69 69 68 68
72 72 72 72 71 71 71 71 71 70 69 68 68 67 66 65 66 66 67 69 69 68 67 68 68 69 69 69 69 69 68 67 66
72 71 71 71 71 71 71 71 70 69 69 68 67 67 66 64 66 67 67 69 68 67 68 68 68 69 68 68 68 68 67 66 65
70 70 70 70 70 69 69 68 68 68 68 67 66 65 65 64 66 67 68 69 67 68 68 68 68 68 68 68 68 67 66 65 65
69 68 68 68 69 69 68 67 66 65 64 65 64 64 64 65 65 66 68 69 68 68 68 68 68 68 68 68 67 66 65 65 65
68 66 66 67 67 66 66 64 63 61 59 61 62 61 61 62 63 65 68 68 68 67 67 67 67 68 68 68 67 66 65 65 65
67 66 65 64 62 59 57 56 56 56 58 58 59 59 59 59 60 64 67 68 68 68 67 66 66 66 68 67 66 65 66 66 66
65 64 61 58 57 54 54 53 53 54 54 55 55 55 56 57 59 60 64 68 68 67 66 66 66 65 66 66 66 67 67 67 66
64 61 58 56 55 53 53 53 53 52 52 51 52 52 52 53 55 57 60 65 67 67 66 66 66 65 65 66 67 66 66 66 66
61 59 56 55 54 52 52 51 50 50 50 48 49 49 50 51 52 54 57 61 64 67 66 65 66 66 66 66 66 66 65 65 65
60 58 56 54 51 50 50 49 49 49 48 47 48 49 49 50 51 52 54 57 61 65 67 66 66 66 66 66 66 65 64 64 64
59 57 55 53 51 51 50 49 48 48 47 46 47 48 49 50 50 50 52 56 59 64 66 66 67 66 67 67 65 64 63 62 61
58 57 55 52 51 50 49 49 49 47 46 46 47 47 48 48 49 49 50 53 58 64 65 64 65 66 66 66 64 63 62 61 60
57 56 54 52 51 50 49 48 48 47 46 45 44 45 46 47 48 48 49 51 55 58 61 63 64 64 64 64 62 61 60 59 58
57 56 55 52 51 50 48 47 46 46 48 48 48 47 46 46 47 47 48 49 52 53 56 59 62 61 62 61 60 59 59 58 57
57 56 54 52 50 49 48 48 48 49 50 51 50 48 49 46 45 47 46 46 48 50 51 53 54 56 57 58 59 58 58 58 57
57 56 55 53 51 49 48 50 50 50 49 51 50 49 48 45 44 44 45 44 47 47 48 50 51 52 54 56 57 58 58 56 56
57 57 56 54 52 50 49 51 52 52 49 47 46 45 47 46 45 44 44 44 44 45 46 47 48 49 51 53 54 55 56 56 55
57 56 55 53 52 50 50 51 50 52 52 48 43 43 42 43 45 43 43 43 42 43 44 46 46 47 48 49 52 54 55 55 56
Lifted_Index
-5 -5 -4 -4 -3 -3 -3 -2 -2 -2 -2 -1 -1 -0 0 0 0 -0 0 0 0 0 0 -0 -1 -1 -1 -1 -1 -1 -0 -0 0
-5 -4 -4 -4 -3 -3 -3 -2 -2 -2 -1 -1 -0 0 0 0 0 -0 -0 -0 -0 0 0 0 -1 -1 -1 -1 -1 -1 -0 -0 0
-4 -4 -4 -4 -3 -3 -3 -3 -2 -2 -1 -0 0 0 0 0 -0 -0 -1 -1 -0 0 0 -0 -1 -1 -1 -1 -1 -1 -0 0 0
-4 -4 -4 -3 -3 -3 -3 -2 -2 -1 -0 0 1 1 0 -0 -0 -1 -1 -1 -0 -0 -0 -0 -1 -1 -1 -1 -1 -1 -0 0 1
-4 -3 -3 -3 -2 -2 -2 -2 -1 -0 0 1 1 1 0 -0 -1 -1 -1 -1 -0 -0 -0 -0 -1 -1 -1 -1 -1 -0 0 1 1
-3 -3 -2 -2 -1 -1 -1 -1 -0 0 0 1 1 1 0 -0 -1 -1 -1 -1 -1 -0 -0 -0 -0 -1 -1 -1 -0 0 1 1 1
-2 -2 -1 -1 -1 -1 -1 -0 -0 0 0 1 1 1 0 -0 -0 -1 -1 -1 -1 -1 -0 -0 -0 -0 -1 -0 0 1 1 1 1
-2 -2 -1 -0 -0 -0 -0 -0 -0 0 0 1 1 1 1 0 -0 -0 -1 -1 -1 -1 -0 0 0 -0 -0 0 1 1 1 1 1
-2 -2 -1 -0 -0 -0 -0 -0 -0 0 0 1 2 2 1 1 0 -0 -1 -1 -1 -1 -0 0 0 0 0 0 1 1 1 1 1
-2 -2 -1 -1 -0 -0 -0 -0 0 0 1 2 2 2 2 1 1 0 -0 -1 -1 -1 -1 -0 0 0 0 0 1 1 1 0 1
-2 -1 -1 -1 -0 -0 -0 -0 0 1 2 2 3 3 2 2 2 1 0 -0 -0 -0 -0 -0 -0 -0 -0 0 0 1 1 1 1
-1 -1 -1 -0 -0 -0 0 0 1 1 2 3 3 3 3 3 3 2 2 1 1 0 -0 -0 -0 -0 -0 -0 0 1 1 2 2
-1 -1 -0 -0 -0 0 1 1 2 2 2 3 3 4 4 4 3 3 2 2 2 1 0 -0 -0 -0 -0 0 1 1 2 3 3
-1 -1 -1 -0 -0 0 1 2 2 2 3 3 4 4 4 4 4 3 3 3 2 1 1 1 0 0 1 1 1 2 3 4 5
-1 -1 -1 -1 -0 1 1 2 3 3 3 4 4 4 4 4 3 3 3 2 2 2 1 1 1 1 1 1 2 3 4 5 5
-1 -1 -1 -0 -0 0 1 2 3 3 3 3 4 4 4 3 3 3 2 2 2 2 2 2 2 2 2 2 2 3 4 5 6
-1 -1 -1 -0 -0 0 1 2 2 2 3 3 3 4 3 3 3 3 2 2 2 2 2 2 3 3 3 3 4 4 5 6 6
-1 -1 -0 -0 -0 -0 1 1 2 2 2 3 3 3 3 3 3 3 2 2 2 2 2 2 3 3 4 4 5 6 6 7 7
-1 -1 -0 -0 -0 -0 0 1 1 2 3 3 3 2 2 2 3 3 2 2 2 2 2 3 4 4 5 6 7 7 7 7 7
-1 -1 -0 0 -0 -0 0 1 1 1 3 3 2 2 2 2 3 3 2 2 2 2 3 3 4 5 6 7 8 8 8 8 7